Weather History for Jackson Hawkins Field, MS

Change the Weather History Date:

Tuesday, February 25, 2014

  Actual Average (KJAN) Record (KJAN)
Temperature  
Mean Temperature 55 °F 52 °F  
Max Temperature 59 °F 63 °F 89 °F (1918)
Min Temperature 51 °F 41 °F 20 °F (1967)
Degree Days  
Heating Degree Days 10 13  
Month to date heating degree days 399  
Since 1 July heating degree days 1951  
Cooling Degree Days 0 0  
Month to date cooling degree days 0  
Year to date cooling degree days 4  
Growing Degree Days 5 (Base 50)    
Moisture  
Dew Point 44 °F    
Average Humidity 67    
Maximum Humidity 89    
Minimum Humidity 55    
Precipitation  
Precipitation 0.08 in 0.16 in 2.72 in (2006)
Month to date precipitation 4.27  
Year to date precipitation 9.24  
Sea Level Pressure  
Sea Level Pressure 30.03 in    
Wind  
Wind Speed 4 mph (NE)    
Max Wind Speed 9 mph    
Max Gust Speed -    
Visibility 10 miles    
Events Rain , Thunderstorm    
T = Trace of Precipitation, MM = Missing Value Source: NWS Daily Summary

Daily Weather History Graph

Daily Weather History Graph

Search for Another Location

Airport:

Trip Planner

Search our weather history database for the weather conditions in past years. The results will help you decide how hot, cold, wet, or windy it might be!

Date:

Astronomy

Feb. 25, 2014 Rise Set
Actual Time 6:32 AM CST 5:55 PM CST
Civil Twilight 6:08 AM CST 6:20 PM CST
Nautical Twilight 5:39 AM CST 6:48 PM CST
Astronomical Twilight 5:11 AM CST 7:17 PM CST
Moon 3:18 AM CST (2/25) 2:09 PM CST (2/25)
Length of Visible Light 12h 11m
Length of Day
11h 22m
Waning Crescent, 18% of the Moon is Illuminated
Feb 25
Waning Crescent
Mar 1
New
Mar 8
First Quarter
Mar 16
Full
Mar 23
Last Quarter

Hourly Weather History & Observations

Time (CST) Temp. Dew Point Humidity Pressure Visibility Wind Dir Wind Speed Gust Speed Precip Events Conditions
12:53 AM 55.0 °F 44.1 °F 67% 30.06 in 10.0 mi SE 3.5 mph - N/A   Mostly Cloudy
1:53 AM 53.1 °F 45.0 °F 74% 30.04 in 10.0 mi ESE 3.5 mph - N/A   Clear
2:53 AM 54.0 °F 44.1 °F 69% 30.04 in 10.0 mi Calm Calm - N/A   Mostly Cloudy
3:53 AM 53.1 °F 45.0 °F 74% 30.02 in 10.0 mi SSE 4.6 mph - N/A   Mostly Cloudy
4:53 AM 55.0 °F 45.0 °F 69% 30.03 in 10.0 mi Calm Calm - N/A   Mostly Cloudy
5:53 AM 55.0 °F 46.0 °F 72% 30.04 in 10.0 mi NW 4.6 mph - N/A   Overcast
6:13 AM 55.4 °F 46.4 °F 72% 30.06 in 10.0 mi NW 5.8 mph - N/A   Overcast
6:53 AM 54.0 °F 46.0 °F 75% 30.08 in 10.0 mi NNW 9.2 mph - N/A   Overcast
7:53 AM 51.1 °F 41.0 °F 68% 30.11 in 10.0 mi NNW 8.1 mph - N/A   Overcast
8:53 AM 52.0 °F 39.9 °F 63% 30.12 in 10.0 mi North 8.1 mph - N/A   Overcast
9:53 AM 53.1 °F 39.0 °F 59% 30.13 in 10.0 mi NE 5.8 mph - N/A   Overcast
10:53 AM 55.0 °F 41.0 °F 59% 30.12 in 10.0 mi Variable 3.5 mph - N/A   Overcast
11:19 AM 55.4 °F 41.0 °F 58% 30.12 in 10.0 mi Variable 3.5 mph - N/A   Overcast
11:53 AM 57.0 °F 41.0 °F 55% 30.10 in 10.0 mi NE 4.6 mph - N/A   Overcast
12:53 PM 57.0 °F 42.1 °F 57% 30.06 in 10.0 mi NE 6.9 mph - N/A   Overcast
1:53 PM 57.9 °F 43.0 °F 58% 30.04 in 10.0 mi Variable 4.6 mph - N/A   Overcast
2:53 PM 59.0 °F 43.0 °F 55% 30.01 in 10.0 mi NE 5.8 mph - N/A   Overcast
3:53 PM 57.0 °F 44.1 °F 62% 30.01 in 10.0 mi NE 3.5 mph - N/A   Overcast
4:53 PM 57.0 °F 44.1 °F 62% 30.00 in 10.0 mi NNE 3.5 mph - N/A   Overcast
5:53 PM 57.0 °F 44.1 °F 62% 29.99 in 10.0 mi ENE 3.5 mph - N/A   Overcast
6:53 PM 57.0 °F 44.1 °F 62% 29.99 in 10.0 mi NE 3.5 mph - N/A   Overcast
7:53 PM 55.9 °F 46.0 °F 69% 29.98 in 10.0 mi Calm Calm - N/A   Overcast
8:53 PM 55.9 °F 45.0 °F 67% 29.97 in 10.0 mi East 4.6 mph - N/A   Overcast
9:16 PM 55.4 °F 44.6 °F 67% 29.99 in 10.0 mi NNE 5.8 mph - N/A Thunderstorm Overcast
9:51 PM 55.4 °F 46.4 °F 72% 29.97 in 10.0 mi ENE 5.8 mph - 0.00 in Rain , Thunderstorm Light Rain
9:53 PM 55.0 °F 46.0 °F 72% 29.97 in 10.0 mi Variable 3.5 mph - 0.00 in Rain , Thunderstorm Light Rain
10:15 PM 53.6 °F 46.4 °F 77% 29.99 in 10.0 mi Calm Calm - 0.00 in   Overcast
10:53 PM 53.1 °F 48.9 °F 86% 29.98 in 3.0 mi NE 3.5 mph - 0.06 in Rain Heavy Rain
11:53 PM 52.0 °F 48.9 °F 89% 29.97 in 8.0 mi NNW 4.6 mph - 0.02 in   Overcast